SL-19 DEB, 23485

Orbit data source: Space-Track

SL-19 DEB, 23485 is space debris in LEO originally from a launch on Mon, 26 Dec 1994 UTC launched from the Tyuratam Missile And Space Complex (TTMTR). Debris objects in space refer to the collection of defunct objects orbiting the Earth. Examples of debris include non-operational satellites, rocket bodies, and fragments generated from explosions, collisions, or faulty payload assembly.

Loading next visibility...
Identifier
23485, 1994-085H
Orbit
LEO
Last TLE update
8 hours ago
Origin
Manufacturer
Unknown
Mission
Spacecraft
Bus & Motor
Unknown
Mass
Unknown
Launch date (UTC)
1994-12-26 (30 years ago)
Launch vehicle
Unknown
Launch site
Tyuratam Missile And Space Complex (TTMTR)
Object type
Payload
Rocket body
Debris
Shape & HBR
Unknown
Radar Cross Section
Small (<0.1 m²)

Expand to show TLE details & history

TLE from 8 hours ago
0 SL-19 DEB
1 23485U 94085H   25128.96652705  .00000606  00000-0  17929-1 0  9997
2 23485  64.6389 116.5072 0148390 267.0199  91.3736 11.30194283251606
Epoch: 2025-05-08T23:11Z
Definitive object data (Epoch: 2025-05-08T23:11:47.937Z)
Latitude
0.00006°
Longitude
-98.47195°
Altitude
2,015.862 km
Speed
6.891 km/s
True Right ascension
07h 46m 01s
True Declination
0° 00' 00"
Sunlit
Object was in daylight at TLE epoch
Visualization TLE readout
Latitude
-43.42976°
Longitude
107.52682°
Altitude
1,925.802 km
Speed
6.97 km/s
Apparent Right ascension
23h 56m 11s
Apparent Declination
-50° 01' 50"
Sunlit
Object is in daylight
Visualization observer readout
Local Sidereal Time
15:05:03
Azimuth
123.142° SE
Elevation
-55.734°
Doppler factor
1
Orbital elements
Apogee altitude
2,132.643 km
Perigee altitude
1,883.754 km
Semi-major axis
8,386.335 km
Eccentricity
0.014839
Inclination
64.6389°
RAAN
116.5072°
Arg. of periapsis
267.0199°
True anomaly
93.07253°
Mean anomaly
91.3736°
Eccentric anomaly
92.22317°
Mean motion
2.82608 °/min
BSTAR
0.017929
Orbital period
127.38 mins
Loading maneuver chart data...
Loading SW <> Apogee altitude chart data...
Loading historical data...
Loading historical data...
Loading historical data...
Loading historical data...
Loading historical data...
Loading historical data...
Loading historical data...

SL-19 DEB Visibility forecast

Observer location: undefined°, undefined°

Span
Click to sort rows by Start time (UTC) header in descending order
Start Az.
Max El. time (UTC)
Max El. Az.
Max El.
End time (UTC)
End Az.
21 mins2025-05-09 08:15:08.222Z333.253° NNW2025-05-09 08:26:08.222Z43.918° NE34.47°2025-05-09 08:36:08.222Z108.914° ESE
22 mins2025-05-09 10:28:08.222Z322.281° NNW2025-05-09 10:39:08.222Z238.452° WSW42.181°2025-05-09 10:50:08.222Z167.721° S
6 mins2025-05-09 12:46:08.222Z278.053° WNW2025-05-09 12:48:08.222Z267.558° W12.132°2025-05-09 12:52:08.222Z246.676° WSW
14 mins2025-05-09 22:40:08.222Z136.307° SSE2025-05-09 22:46:08.222Z101.163° ESE20.587°2025-05-09 22:54:08.222Z56.985° ENE
22 mins2025-05-10 00:46:08.222Z207.45° SW2025-05-10 00:57:08.222Z66.132° ENE44.935°2025-05-10 01:08:08.222Z33.026° NE
19 mins2025-05-10 03:02:08.222Z270.416° WNW2025-05-10 03:11:08.222Z329.464° NNW29.16°2025-05-10 03:21:08.222Z27.343° NE
15 mins2025-05-10 05:21:08.222Z320.815° NNW2025-05-10 05:28:08.222Z359.555° N19.518°2025-05-10 05:36:08.222Z43.445° NE
|